METEOR 2-11 DEB, 40703

Orbit data source: Space-Track

METEOR 2-11 DEB, 40703 is space debris in LEO originally from a launch on Thu, 05 Jul 1984 UTC launched from the Plesetsk Missile And Space Complex (PKMTR). Debris objects in space refer to the collection of defunct objects orbiting the Earth. Examples of debris include non-operational satellites, rocket bodies, and fragments generated from explosions, collisions, or faulty payload assembly.

Loading next visibility...
Identifier
40703, 1984-072E
Orbit
LEO
Country
Flag of CISCIS
Related business
Manufacturer
Unknown
Mission
Spacecraft
Bus & Motor
Unknown
Mass
Unknown
Launch date (UTC)
1984-07-05 (42 years ago)
Launch vehicle
Unknown
Launch site
Plesetsk Missile And Space Complex (PKMTR)
Object type
Payload
Rocket body
Debris
Shape & HBR
Unknown shape, 0.1 m
Radar Cross Section
Small (<0.1 m²)

Expand to show TLE details & history
Last TLE update: 17 hours ago

TLE from 17 hours ago
0 METEOR 2-11 DEB
1 40703U 84072E   26130.00645727  .00001521  00000-0  10826-2 0  9996
2 40703  82.5125  39.8443 0008346  35.0410 325.1305 13.96891148563939
Epoch: 2026-05-10T00:09Z
TLE epoch observation values (Epoch: 2026-05-10T00:09:17.908Z)
Latitude
0.00002°
Longitude
169.70395°
Altitude
902.513 km
Speed
7.403 km/s
True Right ascension
02h 39m 22s
True Declination
0° 00' 00"
Sunlit
Object was in daylight at epoch
Visualization orbit readout
Latitude
Unknown
Longitude
Unknown
Altitude
Unknown
Speed
Unknown
Apparent Right ascension
Unknown
Apparent Declination
Unknown
Sunlit
N/A
Visualization observer readout
Local Sidereal Time
01:36:23
Azimuth
Unknown
Elevation
Unknown
Doppler factor
Unknown
Orbital elements
Apogee altitude
907.792 km
Perigee altitude
895.64 km
Semi-major axis
7,279.853 km
Eccentricity
0.00083
Inclination
82.5125°
RAAN
39.8443°
Arg. of periapsis
35.041°
True anomaly
325.07578°
Mean anomaly
325.1305°
Eccentric anomaly
325.10314°
Mean motion
3.49429 °/min
Orbital period
103.03 mins
BSTAR
0.0010826
Loading maneuver chart data...
Computing Atmospheric mass density...
Loading historical data...
Loading historical data...
Loading historical data...
Loading historical data...
Loading historical data...
Loading historical data...
Loading historical data...

Documentation

Showing up to 5 results
|